Weather History for Nogales, AZ

Change the Weather History Date:

Tuesday, September 10, 2013

  Actual Average (KTUS) Record (KTUS)
Temperature  
Mean Temperature 72 °F 83 °F  
Max Temperature 82 °F 96 °F 107 °F (1990)
Min Temperature 63 °F 71 °F 53 °F (1912)
Degree Days  
Heating Degree Days 0 0  
Month to date heating degree days 0  
Since 1 July heating degree days 0  
Cooling Degree Days 8 18  
Month to date cooling degree days 192  
Year to date cooling degree days 2602  
Growing Degree Days 22 (Base 50)    
Moisture  
Dew Point 60 °F    
Average Humidity 74    
Maximum Humidity 97    
Minimum Humidity 41    
Precipitation  
Precipitation 0.05 in 0.05 in 2.85 in (1964)
Month to date precipitation 0.53  
Year to date precipitation 8.44  
Sea Level Pressure  
Sea Level Pressure 29.86 in    
Wind  
Wind Speed 4 mph (NNE)    
Max Wind Speed 9 mph    
Max Gust Speed 16 mph    
Visibility 10 miles    
Events Rain    
T = Trace of Precipitation, MM = Missing Value Source: NWS Daily Summary

Daily Weather History Graph

Daily Weather History Graph

Search for Another Location

Airport:

Trip Planner

Search our weather history database for the weather conditions in past years. The results will help you decide how hot, cold, wet, or windy it might be!

Date:

Astronomy

Sep. 10, 2013 Rise Set
Actual Time 6:04 AM MST 6:35 PM MST
Civil Twilight 5:40 AM MST 6:59 PM MST
Nautical Twilight 5:11 AM MST 7:28 PM MST
Astronomical Twilight 4:42 AM MST 7:57 PM MST
Moon 11:11 AM MST (9/10) 10:04 PM MST (9/10)
Length of Visible Light 13h 19m
Length of Day
12h 30m
Waxing Crescent, 29% of the Moon is Illuminated
Sep 10
Waxing Crescent
Sep 12
First Quarter
Sep 19
Full
Sep 26
Last Quarter
Oct 4
New

Hourly Weather History & Observations

Time (MST) Temp. Heat Index Dew Point Humidity Pressure Visibility Wind Dir Wind Speed Gust Speed Precip Events Conditions
12:04 AM 64.9 °F - 61.0 °F 87% 29.98 in 10.0 mi West 5.8 mph - 0.00 in Rain Light Rain
12:11 AM 64.9 °F - 62.1 °F 90% 29.98 in 8.0 mi West 3.5 mph - 0.01 in Rain Light Rain
12:37 AM 64.9 °F - 61.0 °F 87% 29.98 in 10.0 mi North 6.9 mph - 0.01 in   Overcast
12:54 AM 64.9 °F - 61.0 °F 87% 29.80 in 10.0 mi NNE 5.8 mph - 0.01 in   Overcast
1:13 AM 64.9 °F - 62.1 °F 90% 29.98 in 9.0 mi ENE 4.6 mph - 0.01 in Rain Light Rain
1:54 AM 64.9 °F - 62.1 °F 90% 29.78 in 6.0 mi SSE 5.8 mph - 0.03 in Rain Rain
2:54 AM 64.0 °F - 62.1 °F 93% 29.78 in 10.0 mi SW 4.6 mph - 0.01 in   Mostly Cloudy
3:54 AM 64.0 °F - 62.1 °F 93% 29.79 in 10.0 mi Calm Calm - N/A   Overcast
4:54 AM 64.0 °F - 62.1 °F 93% 29.81 in 10.0 mi South 3.5 mph - N/A   Scattered Clouds
5:54 AM 64.0 °F - 61.0 °F 90% 29.82 in 10.0 mi Calm Calm - N/A   Partly Cloudy
6:15 AM 64.0 °F - 62.1 °F 93% 29.99 in 10.0 mi Calm Calm - N/A   Mostly Cloudy
6:28 AM 63.0 °F - 62.1 °F 97% 29.99 in 10.0 mi ESE 4.6 mph - N/A   Overcast
6:54 AM 64.9 °F - 62.1 °F 90% 29.83 in 10.0 mi ESE 5.8 mph - N/A   Scattered Clouds
7:54 AM 68.0 °F - 62.1 °F 81% 29.84 in 10.0 mi SSE 3.5 mph - N/A   Clear
8:54 AM 70.0 °F - 64.0 °F 81% 29.86 in 10.0 mi Calm Calm - N/A   Clear
9:54 AM 73.9 °F - 60.1 °F 62% 29.85 in 10.0 mi Calm Calm - N/A   Clear
10:54 AM 75.9 °F - 59.0 °F 56% 29.85 in 10.0 mi Variable 3.5 mph - N/A   Clear
11:54 AM 79.0 °F - 57.0 °F 47% 29.83 in 10.0 mi Variable 3.5 mph - N/A   Partly Cloudy
12:54 PM 82.0 °F 81.6 °F 55.9 °F 41% 29.82 in 10.0 mi Variable 5.8 mph - N/A   Partly Cloudy
1:54 PM 81.0 °F 81.0 °F 57.0 °F 44% 29.81 in 10.0 mi WNW 9.2 mph 16.1 mph N/A   Scattered Clouds
2:54 PM 82.0 °F 81.7 °F 57.0 °F 42% 29.80 in 10.0 mi NW 5.8 mph - N/A   Clear
3:54 PM 81.0 °F 81.0 °F 57.0 °F 44% 29.79 in 10.0 mi NW 8.1 mph - N/A   Partly Cloudy
4:54 PM 79.0 °F - 57.0 °F 47% 29.80 in 10.0 mi NW 4.6 mph - N/A   Mostly Cloudy
5:54 PM 78.1 °F - 55.9 °F 46% 29.81 in 10.0 mi NW 6.9 mph - N/A   Partly Cloudy
6:54 PM 73.9 °F - 59.0 °F 59% 29.83 in 10.0 mi North 3.5 mph - N/A   Clear
7:54 PM 71.1 °F - 61.0 °F 70% 29.86 in 10.0 mi NE 4.6 mph - N/A   Clear
8:54 PM 68.0 °F - 61.0 °F 78% 29.89 in 10.0 mi ENE 3.5 mph - N/A   Clear
9:54 PM 66.9 °F - 60.1 °F 79% 29.88 in 10.0 mi Calm Calm - N/A   Clear
10:54 PM 66.0 °F - 59.0 °F 78% 29.89 in 10.0 mi East 4.6 mph - N/A   Clear
11:54 PM 64.0 °F - 59.0 °F 84% 29.88 in 10.0 mi NNE 3.5 mph - N/A   Clear